Overview Statistics Trail Chart Weather Telemetry Raw packets
 

This is the latest recevied weather packets stored in our database for station/object AI5BL. If no packets are shown the sender has not sent any weather packets the latest 10 day(s).

<< 110 111 112 113 114 >>
Time Temp. Humidity Pressure Rain* Wind** Luminosity Snow
1787812664 22.78° C 99% 1016.2 hPa 0 mm - 0 W/m² -
1787812360 22.78° C 99% 1016.4 hPa 0 mm - 0 W/m² -
1787812059 22.78° C 99% 1016.4 hPa 0 mm - 0 W/m² -
1787811755 22.78° C 99% 1016.4 hPa 0 mm - 0 W/m² -
1787811450 22.78° C 99% 1016.7 hPa 0 mm - 0 W/m² -
1787811145 22.78° C 99% 1016.9 hPa 0 mm - 0 W/m² -
1787810840 23.33° C 99% 1016.8 hPa 0 mm - 0 W/m² -
1787810535 23.33° C 99% 1016.6 hPa 0 mm - 0 W/m² -
1787810234 23.33° C 99% 1016.5 hPa 0 mm - 0 W/m² -
1787809929 22.78° C 99% 1016.7 hPa 0 mm - 0 W/m² -
1787809629 22.78° C 99% 1016.8 hPa 0 mm - 0 W/m² -
1787809325 22.78° C 99% 1016.7 hPa 0 mm - 0 W/m² -
1787809021 22.78° C 99% 1016.8 hPa 0 mm - 0 W/m² -
1787808716 22.78° C 98% 1016.8 hPa 0 mm - 0 W/m² -
1787808416 22.78° C 99% 1016.9 hPa 1.78 mm - 0 W/m² -
1787808115 22.78° C 99% 1017.1 hPa 1.27 mm - 0 W/m² -
1787807814 22.78° C 98% 1017.1 hPa 1.78 mm - 0 W/m² -
1787807509 22.78° C 98% 1017.2 hPa 3.05 mm - 0 W/m² -
1787807205 22.78° C 98% 1017.5 hPa 3.05 mm - 0 W/m² -
1787806900 22.78° C 98% 1017.5 hPa 3.05 mm - 0 W/m² -
1787806598 22.78° C 98% 1017.8 hPa 1.27 mm - 0 W/m² -
1787806298 22.78° C 98% 1017.6 hPa 1.78 mm - 0 W/m² -
1787805993 22.78° C 98% 1017.8 hPa 1.27 mm - 0 W/m² -
1787805689 22.78° C 98% 1017.7 hPa 1.27 mm - 0 W/m² -
1787805385 22.78° C 98% 1017.8 hPa 1.78 mm - 0 W/m² -

* Rain latest hour (hover to see other rain measurements)
** Current wind speed in m/s (hover to see current wind gust speed)